Regional Weather Roundup
Issued by NWS

Home | Current Version | Previous Version | Text Only | Print | Product List | Glossary On
Versions: 1 2 3 4 5 6 7 8 9 10 11 12 13 14 15 16 17 18 19 20 21 22 23 24 25 26 27 28 29 30 31 32 33 34 35 36 37 38 39 40 41 42 43 44 45 46 47 48 49 50
000
ASUS45 KSLC 170310
RWRUT

UTAH REGIONAL WEATHER ROUNDUP
NATIONAL WEATHER SERVICE SALT LAKE CITY UT
800 PM MST SAT DEC 16 2017

UTZ001>011-023>025-170400-

NORTHERN UTAH

CITY           SKY/WX    TMP DP  RH WIND       PRES   REMARKS
BRIGHAM CITY   CLOUDY    31  27  84 S5        30.02R WCI  26
HILL AFB       LGT SNOW  28  28  98 NW6       30.00R FOG     WCI  22
LOGAN          MOCLDY    30  24  78 CALM      30.02R
OGDEN          LGT SNOW  29  27  92 NW7       30.00R FOG     WCI  22
SALT LAKE CITY LGT SNOW  32  30  92 NW8       30.01S FOG     WCI  25
TOOELE VALLEY  MIX PCPN  30  30 100 W7        30.04R WCI  23
WENDOVER       CLEAR     30  17  58 CALM      30.07R
HEBER CITY     FLURRIES  30  27  86 SW5       29.92R WCI  25
WEST JORDAN    CLOUDY    29  29 100 NW12      30.01R WCI  19

$$

UTZ011>015-024>027-170400-

CENTRAL/NORTHEAST UTAH

CITY           SKY/WX    TMP DP  RH WIND       PRES   REMARKS
PROVO AIRPORT  CLOUDY    31  28  89 NW17      30.00R WCI  19
MOAB/CANYONLAN MOCLDY    28  10  46 CALM      29.84R
DELTA          CLOUDY    30  28  93 N9        30.00R WCI  22
PRICE          CLOUDY    36  22  56 NW9       29.82S WCI  29
RICHFIELD      CLOUDY    32  27  80 N5        29.96R WCI  27
ROOSEVELT      CLOUDY    32  16  51 CALM      29.85R
VERNAL         CLOUDY    29  13  51 CALM      29.82R

$$

UTZ013>016-019>022-027-170400-

SOUTHERN UTAH

CITY           SKY/WX    TMP DP  RH WIND       PRES   REMARKS
BRYCE CANYON   CLOUDY    25  15  66 NW6       29.86R WCI  18
CEDAR CITY     CLOUDY    30  24  78 N17G23    29.91R WCI  18
MILFORD        CLOUDY    30  27  88 N10       29.97R WCI  21
ST GEORGE      CLOUDY    49  23  36 NE14      29.84R
HANKSVILLE     MOCLDY    27   9  46 MISG      29.88R
KANAB          CLEAR     34   1  25 E7        29.87R WCI  28
BLANDING         N/A     30   7  37 CALM      29.89R

$$

REGIONAL REPORTS     COLORADO/ARIZONA

CITY           SKY/WX    TMP DP  RH WIND       PRES   REMARKS
CRAIG, CO      CLOUDY    17  12  80 CALM      29.82S
GRAND JUNCTION CLOUDY    26   6  42 CALM      29.83R
RIFLE, CO      CLOUDY    30  10  43 W3        29.83R
MONTROSE, CO   CLOUDY    31   9  39 SE9       29.84R WCI  23
CORTEZ, CO     CLOUDY    31  10  41 CALM      29.82S
COLORADO CITY    N/A     36  14  41 CALM      29.85R
PAGE, AZ       MOCLDY    38  11  32 SW5       29.83R WCI  34
GRAND CANYON   MOCLDY    23   2  40 CALM      29.86R
KINGMAN, AZ    MOCLDY    44   9  23 CALM      29.81R
FLAGSTAFF, AZ  MOCLDY    31   9  39 CALM      29.87R

$$

REGIONAL REPORTS    NEVADA/IDAHO/WYOMING

CITY           SKY/WX    TMP DP  RH WIND       PRES   REMARKS
LAS VEGAS, NV  MOCLDY    58  26  29 N13       29.80R
ELY, NY        CLOUDY    27  18  69 N14       29.98R WCI  16
ELKO, NV       CLOUDY    28  18  66 NW5       30.09R WCI  23
POCATELLO, ID  CLOUDY    28  25  88 W12       30.08R WCI  18
BURLEY, ID     CLOUDY    31  24  75 W10G18    30.09R WCI  22
FORT BRIDGER,  LGT SNOW  26  26 100 W10       29.91R WCI  16
EVANSTON, WY   FLURRIES  23  22  96 N7        29.91R WCI  15
ROCK SPRINGS,  CLOUDY    29  24  82 E8        29.85R WCI  21

$$



USA.gov is the U.S. government's official web portal to all federal, state and local government web resources and services.